| time (UTC) | temp C | wind direction | speed KPH | gust KPH | rain 1hr cm | rain 24hr cm | rain mn cm | humidity % | barometer mb |
| 20260906220025 | 18 | 317 | 3.2 | 17.7 | 0.00 | 0.00 | 0.00 | 42 | 1019.9 |
| 20260906214522 | 19 | 11 | 4.8 | 19.3 | 0.00 | 0.00 | 0.00 | 48 | 1019.9 |
| 20260906213019 | 19 | 342 | 6.4 | 17.7 | 0.00 | 0.00 | 0.00 | 47 | 1019.9 |
| 20260906211522 | 19 | 343 | 4.8 | 17.7 | 0.00 | 0.00 | 0.00 | 49 | 1019.9 |
| 20260906210009 | 20 | 355 | 8.0 | 19.3 | 0.00 | 0.00 | 0.00 | 53 | 1019.8 |
| 20260906204502 | 20 | 355 | 8.0 | 14.5 | 0.00 | 0.00 | 0.00 | 56 | 1019.6 |
| 20260906203112 | 20 | 45 | 9.7 | 17.7 | 0.00 | 0.00 | 0.00 | 54 | 1019.6 |
| 20260906201602 | 20 | 16 | 6.4 | 17.7 | 0.00 | 0.00 | 0.00 | 52 | 1019.6 |
| 20260906200051 | 20 | 318 | 6.4 | 16.1 | 0.00 | 0.00 | 0.00 | 53 | 1019.6 |
| 20260906194545 | 20 | 313 | 6.4 | 16.1 | 0.00 | 0.00 | 0.00 | 45 | 1019.6 |
| 20260906193100 | 20 | 28 | 12.9 | 27.4 | 0.00 | 0.00 | 0.00 | 56 | 1019.5 |
| 20260906191540 | 20 | 41 | 9.7 | 22.5 | 0.00 | 0.00 | 0.00 | 54 | 1019.4 |
| 20260906190032 | 20 | 330 | 11.3 | 20.9 | 0.00 | 0.00 | 0.00 | 54 | 1019.4 |
| 20260906184528 | 20 | 37 | 6.4 | 14.5 | 0.00 | 0.00 | 0.00 | 44 | 1019.6 |
| 20260906183026 | 20 | 28 | 6.4 | 14.5 | 0.00 | 0.00 | 0.00 | 49 | 1019.4 |
| 20260906181538 | 20 | 5 | 8.0 | 19.3 | 0.00 | 0.00 | 0.00 | 48 | 1019.6 |
| 20260906180021 | 20 | 59 | 4.8 | 19.3 | 0.00 | 0.00 | 0.00 | 56 | 1019.7 |
| 20260906174510 | 20 | 13 | 6.4 | 20.9 | 0.00 | 0.00 | 0.00 | 56 | 1019.7 |
| 20260906173007 | 20 | 339 | 6.4 | 20.9 | 0.00 | 0.00 | 0.00 | 52 | 1019.6 |
| 20260906171610 | 20 | 25 | 9.7 | 17.7 | 0.00 | 0.00 | 0.00 | 51 | 1019.7 |
| 20260906170107 | 20 | 346 | 9.7 | 19.3 | 0.00 | 0.00 | 0.00 | 53 | 1019.7 |
| 20260906164551 | 20 | 24 | 12.9 | 20.9 | 0.00 | 0.00 | 0.00 | 54 | 1019.6 |
| 20260906163047 | 20 | 80 | 14.5 | 24.1 | 0.00 | 0.00 | 0.00 | 52 | 1019.5 |
| 20260906161542 | 20 | 36 | 8.0 | 20.9 | 0.00 | 0.00 | 0.00 | 45 | 1019.6 |
| 20260906160038 | 20 | 40 | 11.3 | 20.9 | 0.00 | 0.00 | 0.00 | 37 | 1019.6 |
| 20260906154541 | 20 | 17 | 9.7 | 20.9 | 0.00 | 0.00 | 0.00 | 30 | 1019.6 |
| 20260906153033 | 20 | 47 | 9.7 | 19.3 | 0.00 | 0.00 | 0.00 | 29 | 1019.6 |
| 20260906151525 | 20 | 59 | 4.8 | 16.1 | 0.00 | 0.00 | 0.00 | 23 | 1019.5 |
| 20260906150022 | 19 | 45 | 6.4 | 16.1 | 0.00 | 0.00 | 0.00 | 3 | 1019.6 |
| 20260906144515 | 19 | 88 | 8.0 | 14.5 | 0.00 | 0.00 | 0.00 | 8 | 1019.6 |
| 20260906143014 | 19 | 63 | 8.0 | 17.7 | 0.00 | 0.00 | 0.00 | 100 | 1019.6 |
| 20260906141506 | 18 | 82 | 9.7 | 17.7 | 0.00 | 0.00 | 0.00 | 100 | 1019.5 |
| 20260906140002 | 18 | 84 | 8.0 | 19.3 | 0.00 | 0.00 | 0.00 | 100 | 1019.4 |
| 20260906134558 | 18 | 82 | 8.0 | 19.3 | 0.00 | 0.00 | 0.00 | 100 | 1019.1 |
| 20260906133105 | 18 | 76 | 12.9 | 22.5 | 0.00 | 0.00 | 0.00 | 100 | 1019.3 |
| 20260906131548 | 17 | 84 | 16.1 | 20.9 | 0.00 | 0.00 | 0.00 | 100 | 1019.1 |
| 20260906130051 | 17 | 79 | 9.7 | 22.5 | 0.00 | 0.00 | 0.00 | 100 | 1019.1 |
| 20260906124543 | 17 | 78 | 8.0 | 17.7 | 0.00 | 0.00 | 0.00 | 100 | 1019.0 |
| 20260906123039 | 17 | 71 | 8.0 | 14.5 | 0.00 | 0.00 | 0.00 | 100 | 1018.9 |
| 20260906121531 | 16 | 54 | 3.2 | 8.0 | 0.00 | 0.00 | 0.00 | 100 | 1018.8 |
| 20260906120026 | 16 | 57 | 3.2 | 9.7 | 0.00 | 0.00 | 0.00 | 100 | 1018.6 |
| 20260906114540 | 16 | 22 | 0.0 | 4.8 | 0.00 | 0.00 | 0.00 | 100 | 1018.6 |
| 20260906113018 | 16 | 355 | 0.0 | 3.2 | 0.00 | 0.00 | 0.00 | 100 | 1018.3 |
| 20260906111513 | 16 | 355 | 0.0 | 3.2 | 0.00 | 0.00 | 0.00 | 100 | 1018.2 |
| 20260906110011 | 16 | 335 | 0.0 | 4.8 | 0.00 | 0.00 | 0.00 | 100 | 1018.1 |
| 20260906104504 | 16 | 9 | 0.0 | 3.2 | 0.00 | 0.00 | 0.00 | 100 | 1017.9 |
| 20260906103101 | 15 | 306 | 0.0 | 4.8 | 0.00 | 0.00 | 0.00 | 100 | 1017.9 |
| 20260906101557 | 15 | 312 | 1.6 | 4.8 | 0.00 | 0.00 | 0.00 | 100 | 1017.6 |
| 20260906100052 | 15 | 263 | 0.0 | 3.2 | 0.00 | 0.00 | 0.00 | 100 | 1017.4 |
| 20260906094601 | 14 | 255 | 0.0 | 0.0 | 0.00 | 0.00 | 0.00 | 100 | 1017.3 |
| 20260906093105 | 15 | 255 | 0.0 | 3.2 | 0.00 | 0.00 | 0.00 | 100 | 1017.2 |
| 20260906091540 | 15 | 255 | 0.0 | 3.2 | 0.00 | 0.00 | 0.00 | 100 | 1017.0 |
| 20260906090034 | 15 | 277 | 1.6 | 4.8 | 0.00 | 0.00 | 0.00 | 100 | 1016.7 |
| 20260906084530 | 15 | 175 | 0.0 | 1.6 | 0.00 | 0.00 | 0.00 | 100 | 1016.5 |
| 20260906083041 | 14 | 195 | 0.0 | 0.0 | 0.00 | 0.00 | 0.00 | 100 | 1016.4 |
| 20260906081521 | 15 | 195 | 0.0 | 0.0 | 0.00 | 0.00 | 0.00 | 100 | 1016.4 |
| 20260906080017 | 15 | 195 | 0.0 | 0.0 | 0.00 | 0.00 | 0.00 | 100 | 1016.4 |
| 20260906074516 | 16 | 195 | 0.0 | 0.0 | 0.00 | 0.00 | 0.00 | 100 | 1016.3 |
| 20260906073015 | 16 | 195 | 0.0 | 0.0 | 0.00 | 0.00 | 0.00 | 100 | 1016.3 |
| 20260906071504 | 16 | 195 | 0.0 | 3.2 | 0.00 | 0.00 | 0.00 | 100 | 1016.2 |
| 20260906070059 | 16 | 195 | 0.0 | 1.6 | 0.00 | 0.00 | 0.00 | 100 | 1016.3 |
| 20260906064555 | 16 | 195 | 0.0 | 1.6 | 0.00 | 0.00 | 0.00 | 100 | 1016.4 |
| 20260906063052 | 16 | 195 | 0.0 | 1.6 | 0.00 | 0.00 | 0.00 | 100 | 1016.4 |
| 20260906061547 | 16 | 103 | 0.0 | 1.6 | 0.00 | 0.00 | 0.00 | 100 | 1016.5 |
| 20260906060042 | 16 | 103 | 0.0 | 0.0 | 0.00 | 0.00 | 0.00 | 100 | 1016.4 |
| 20260906054541 | 16 | 5 | 0.0 | 1.6 | 0.00 | 0.00 | 0.00 | 100 | 1016.4 |
| 20260906053036 | 16 | 5 | 0.0 | 1.6 | 0.00 | 0.00 | 0.00 | 100 | 1016.6 |
| 20260906051532 | 16 | 5 | 0.0 | 0.0 | 0.00 | 0.00 | 0.00 | 100 | 1016.7 |
| 20260906050025 | 16 | 5 | 0.0 | 1.6 | 0.00 | 0.00 | 0.00 | 100 | 1016.5 |
| 20260906044520 | 16 | 5 | 0.0 | 1.6 | 0.00 | 0.00 | 0.00 | 100 | 1016.4 |
| 20260906043017 | 17 | 5 | 0.0 | 1.6 | 0.00 | 0.00 | 0.00 | 100 | 1016.5 |
| 20260906041511 | 17 | 5 | 0.0 | 0.0 | 0.00 | 0.00 | 0.00 | 100 | 1016.4 |
| 20260906040015 | 17 | 5 | 0.0 | 0.0 | 0.00 | 0.00 | 0.00 | 100 | 1016.5 |
| 20260906034502 | 17 | 5 | 0.0 | 1.6 | 0.00 | 0.00 | 0.00 | 100 | 1016.3 |
| 20260906033058 | 17 | 5 | 0.0 | 0.0 | 0.00 | 0.00 | 0.00 | 100 | 1016.2 |
| 20260906031553 | 17 | 5 | 0.0 | 0.0 | 0.00 | 0.00 | 0.00 | 100 | 1016.2 |
| 20260906030050 | 17 | 5 | 0.0 | 1.6 | 0.00 | 0.00 | 0.00 | 100 | 1016.2 |
| 20260906024550 | 17 | 360 | 0.0 | 1.6 | 0.00 | 0.00 | 0.00 | 100 | 1016.1 |
| 20260906023041 | 17 | 5 | 0.0 | 1.6 | 0.00 | 0.00 | 0.00 | 100 | 1016.0 |
| 20260906021536 | 17 | 5 | 0.0 | 1.6 | 0.00 | 0.00 | 0.00 | 100 | 1016.0 |
| 20260906020032 | 17 | 5 | 0.0 | 3.2 | 0.00 | 0.00 | 0.00 | 100 | 1015.9 |
| 20260906014539 | 17 | 5 | 0.0 | 1.6 | 0.00 | 0.00 | 0.00 | 100 | 1015.8 |
| 20260906013037 | 17 | 5 | 0.0 | 0.0 | 0.00 | 0.00 | 0.00 | 100 | 1015.7 |
| 20260906011518 | 18 | 9 | 0.0 | 0.0 | 0.00 | 0.00 | 0.00 | 100 | 1015.6 |
| 20260906010014 | 18 | 9 | 0.0 | 0.0 | 0.00 | 0.00 | 0.00 | 100 | 1015.6 |
| 20260906004509 | 18 | 9 | 0.0 | 1.6 | 0.00 | 0.00 | 0.00 | 100 | 1015.6 |
| 20260906003005 | 18 | 5 | 0.0 | 1.6 | 0.00 | 0.00 | 0.00 | 100 | 1015.4 |
| 20260906001501 | 18 | 5 | 0.0 | 3.2 | 0.00 | 0.00 | 0.00 | 100 | 1015.5 |
| 20260906000057 | 18 | 346 | 0.0 | 4.8 | 0.00 | 0.00 | 0.00 | 100 | 1015.4 |
| 20260905234558 | 18 | 322 | 0.0 | 6.4 | 0.00 | 0.00 | 0.00 | 1 | 1015.3 |
| 20260905233049 | 19 | 5 | 3.2 | 6.4 | 0.00 | 0.00 | 0.00 | 9 | 1015.4 |
| 20260905231544 | 20 | 360 | 4.8 | 8.0 | 0.00 | 0.00 | 0.00 | 22 | 1015.4 |
| 20260905230039 | 20 | 42 | 3.2 | 6.4 | 0.00 | 0.00 | 0.00 | 27 | 1015.4 |
| 20260905224535 | 20 | 5 | 3.2 | 6.4 | 0.00 | 0.00 | 0.00 | 30 | 1015.3 |
| 20260905223030 | 21 | 327 | 3.2 | 9.7 | 0.00 | 0.00 | 0.00 | 31 | 1015.3 |
| 20260905221525 | 21 | 9 | 4.8 | 11.3 | 0.00 | 0.00 | 0.00 | 31 | 1015.2 |